Pendleton, OR

11:36 AM PST on December 16, 2017 (GMT -0800)
Eastern Oreg Regional At Pendleton

Weather History for KPDT - October, 2012

Change the Weather History Date:

Tuesday, October 30, 2012

  Actual Average Record
Temperature  
Mean Temperature 60 °F 47 °F  
Max Temperature 70 °F 57 °F 79 °F (1901)
Min Temperature 49 °F 37 °F 11 °F (1935)
Degree Days  
Heating Degree Days 5 18  
Month to date heating degree days 402 389  
Since 1 July heating degree days 475 523  
Cooling Degree Days 0 0  
Month to date cooling degree days 0 0  
Year to date cooling degree days 611 634  
Growing Degree Days 10 (Base 50)    
Moisture  
Dew Point 48 °F    
Average Humidity 67    
Maximum Humidity 89    
Minimum Humidity 45    
Precipitation  
Precipitation 0.00 in 0.04 in 0.49 in (1992)
Month to date precipitation 1.58 0.96  
Year to date precipitation 11.58 9.62  
Snow  
Snow 0.00 in 0.00 in 1.30 in (1971)
Month to date snowfall T 0.1  
Year to date snowfall 5.9 7.8  
Since 1 July snowfall T 0.1  
Snow Depth 0.00 in    
Sea Level Pressure  
Sea Level Pressure 29.88 in    
Wind  
Wind Speed 5 mph (SSE)    
Max Wind Speed 15 mph    
Max Gust Speed 20 mph    
Visibility 10 miles    
Events      
T = Trace of Precipitation, MM = Missing Value Source: NWS Daily Summary

Daily Weather History Graph

Daily Weather History Graph

Search for Another Location

Airport or City:

Trip Planner

Search our weather history database for the weather conditions in past years. The results will help you decide how hot, cold, wet, or windy it might be!

Date:

Astronomy

Oct. 30, 2012 Rise Set
Actual Time 7:33 AM PDT 5:44 PM PDT
Civil Twilight 7:02 AM PDT 6:14 PM PDT
Nautical Twilight 6:27 AM PDT 6:49 PM PDT
Astronomical Twilight 5:52 AM PDT 7:24 PM PDT
Moon 6:12 PM PDT (10/30) 8:28 AM PDT (10/30)
Length of Visible Light 11h 12m
Length of Day
10h 10m
Full, 99% of the Moon is Illuminated
Oct 30
Full
Nov 6
Last Quarter
Nov 13
New
Nov 20
First Quarter
Nov 28
Full

Hourly Weather History & Observations

Time (PDT) Temp. Dew Point Humidity Pressure Visibility Wind Dir Wind Speed Gust Speed Precip Events Conditions
12:53 AM 51.1 °F 46.0 °F 83% 30.00 in 10.0 mi SE 4.6 mph - N/A   Clear
1:53 AM 52.0 °F 46.0 °F 80% 30.00 in 10.0 mi SSE 4.6 mph - N/A   Mostly Cloudy
2:53 AM 52.0 °F 46.0 °F 80% 29.93 in 10.0 mi East 11.5 mph - N/A   Scattered Clouds
3:53 AM 50.0 °F 46.4 °F 87% 29.96 in 10.0 mi Calm Calm - N/A   Mostly Cloudy
4:53 AM 52.0 °F 46.9 °F 83% 29.93 in 10.0 mi Calm Calm - N/A   Overcast
5:53 AM 51.1 °F 46.0 °F 83% 29.92 in 10.0 mi East 4.6 mph - N/A   Scattered Clouds
6:53 AM 51.1 °F 46.9 °F 86% 29.92 in 10.0 mi South 4.6 mph - N/A   Overcast
7:53 AM 50.0 °F 46.9 °F 89% 29.92 in 10.0 mi East 3.5 mph - N/A   Overcast
8:53 AM 57.9 °F 45.0 °F 62% 29.93 in 10.0 mi South 5.8 mph - N/A   Overcast
9:53 AM 59.0 °F 48.0 °F 67% 29.93 in 10.0 mi SSE 5.8 mph - N/A   Mostly Cloudy
10:53 AM 63.0 °F 46.9 °F 56% 29.91 in 10.0 mi South 4.6 mph - N/A   Clear
11:53 AM 66.9 °F 45.0 °F 45% 29.90 in 10.0 mi SSW 12.7 mph - N/A   Partly Cloudy
12:53 PM 66.0 °F 46.0 °F 48% 29.87 in 10.0 mi SSW 6.9 mph - N/A   Mostly Cloudy
1:53 PM 70.0 °F 48.0 °F 46% 29.86 in 10.0 mi WNW 4.6 mph - N/A   Scattered Clouds
2:53 PM 66.0 °F 52.0 °F 60% 29.86 in 8.0 mi NW 4.6 mph - N/A   Mostly Cloudy
3:53 PM 64.0 °F 53.1 °F 67% 29.85 in 9.0 mi Calm Calm - N/A   Overcast
4:53 PM 62.6 °F 53.6 °F 72% 29.85 in 10.0 mi ENE 8.1 mph - N/A   Mostly Cloudy
5:53 PM 60.1 °F 51.1 °F 72% 29.82 in 10.0 mi ENE 10.4 mph - N/A   Overcast
6:53 PM 57.9 °F 52.0 °F 81% 29.83 in 10.0 mi West 3.5 mph - N/A   Clear
7:53 PM 55.0 °F 52.0 °F 89% 29.83 in 10.0 mi NW 8.1 mph - N/A   Clear
8:53 PM 54.0 °F 50.0 °F 86% 29.81 in 10.0 mi North 6.9 mph - N/A   Clear
9:53 PM 54.0 °F 50.0 °F 86% 29.81 in 7.0 mi Calm Calm - N/A   Clear
10:53 PM 53.1 °F 48.9 °F 86% 29.81 in 9.0 mi Calm Calm - N/A   Clear
11:53 PM 53.1 °F 48.9 °F 86% 29.80 in 10.0 mi Calm Calm - N/A   Clear